Tracking 27111 objects as of 28-Mar-2023
HD Live streaming from Space Station
objects crossing your sky now

STARLINK-5230

Track STARLINK-5230 now!
10-day predictions
STARLINK-5230 is classified as:


NORAD ID: 55394
Int'l Code: 2023-014D
Perigee: 364.1 km
Apogee: 368.4 km
Inclination: 70.0 °
Period: 91.7 minutes
Semi major axis: 6737 km
RCS: Unknown
Launch date: January 31, 2023
Source: United States (US)
Launch site: AIR FORCE WESTERN TEST RANGE (AFWTR)
Your satellite tracking list
Your tracking list is empty




NASA's NSSDC Master Catalog

Two Line Element Set (TLE):
1 55394U 23014D   23086.92311997  .00003443  00000-0  30385-4 0  9993
2 55394  69.9995 294.3827 0003158 267.5147  92.5687 15.69928914  9818
Source of the keplerian elements: AFSPC